STARLINK-35031

Last updated on Tue Sep 16 2025 00:02:07 GMT+0000 (Coordinated Universal Time)

1 65404U 25192A 25258.58341435 -.02182591 00000+0 -33493-1 0 9995 2 65404 53.1603 338.3133 0001377 56.8090 77.0444 15.57017819 3620
UTC large
Height (km)
Speed (km/s)
/
Latitude / Longitude
Inclination (degrees)
Orbital Period (minutes)
Azimuth
Elevation
Range (km)
Doppler Factor

Next 0 passes for location: London (51.5072 / 0.1276)

Sorry there are no passes over London.